9A5BAA Weather Reports


Display with metric or nautical units.
time (UTC)temp
F
wind
direction
speed
MPH
gust
MPH
rain 1hr
in
rain 24hr
in
rain mn
in
humidity
%
barometer
mb
20260507191546 51 37 3.0 6.0 0.00 0.52 0.52 86 1016.8
20260507191027 51 91 2.0 5.0 0.00 0.52 0.52 87 1016.7
20260507190529 51 53 0.0 4.0 0.00 0.52 0.52 87 1016.8
20260507190049 51 0 0.0 4.0 0.00 0.52 0.52 87 1016.7
20260507185532 52 53 1.0 4.0 0.00 0.52 0.52 86 1016.6
20260507185027 52 52 2.0 6.0 0.00 0.52 0.52 85 1016.5
20260507184550 52 73 2.0 8.0 0.00 0.52 0.52 84 1016.4
20260507184027 52 75 2.0 8.0 0.00 0.52 0.52 84 1016.3
20260507183527 52 73 1.0 6.0 0.00 0.52 0.52 84 1016.3
20260507183038 52 94 2.0 5.0 0.00 0.52 0.52 85 1016.3
20260507182527 52 79 2.0 5.0 0.00 0.52 0.52 86 1016.3
20260507182027 52 0 0.0 7.0 0.00 0.52 0.52 85 1016.3
20260507181538 52 61 2.0 8.0 0.00 0.52 0.52 84 1016.3
20260507181027 53 56 2.0 8.0 0.00 0.52 0.52 83 1016.0
20260507180530 53 95 3.0 8.0 0.00 0.52 0.52 83 1016.0
20260507180040 53 47 1.0 8.0 0.00 0.52 0.52 83 1016.1
20260507175527 53 107 2.0 7.0 0.00 0.52 0.52 83 1016.0
20260507175027 53 63 3.0 7.0 0.00 0.52 0.52 83 1015.9
20260507174539 53 56 2.0 6.0 0.00 0.52 0.52 83 1015.8
20260507174029 53 92 2.0 7.0 0.00 0.52 0.52 83 1015.8
20260507173531 53 84 3.0 7.0 0.00 0.52 0.52 83 1015.7
20260507173043 53 77 1.0 5.0 0.00 0.52 0.52 83 1015.7
20260507172527 53 90 1.0 6.0 0.00 0.52 0.52 82 1015.7
20260507172027 53 0 2.0 8.0 0.00 0.52 0.52 82 1015.7
20260507171541 54 114 1.0 10.0 0.00 0.52 0.52 81 1015.8
20260507171027 54 105 3.0 10.0 0.00 0.52 0.52 81 1015.7
20260507170528 54 117 2.0 6.0 0.00 0.52 0.52 81 1015.9
20260507170039 54 108 2.0 6.0 0.00 0.52 0.52 81 1015.9
20260507165530 54 104 2.0 5.0 0.00 0.52 0.52 82 1015.9
20260507165027 54 68 2.0 5.0 0.00 0.52 0.52 81 1015.9
20260507164550 54 86 2.0 5.0 0.00 0.52 0.52 82 1016.0
20260507164028 54 110 2.0 6.0 0.00 0.52 0.52 82 1016.0
20260507163530 54 76 0.0 11.0 0.00 0.52 0.52 82 1016.0
20260507163045 54 92 3.0 11.0 0.00 0.52 0.52 81 1015.9
20260507162527 54 108 3.0 11.0 0.00 0.52 0.52 82 1015.9
20260507162028 54 79 4.0 8.0 0.00 0.52 0.52 82 1015.9
20260507161546 54 110 4.0 8.0 0.00 0.52 0.52 82 1016.0
20260507161027 54 153 3.0 8.0 0.00 0.52 0.52 83 1016.0
20260507160527 54 148 3.0 8.0 0.00 0.52 0.52 84 1016.0
20260507160040 54 100 4.0 8.0 0.00 0.52 0.52 84 1015.9
20260507155526 54 131 3.0 7.0 0.00 0.52 0.52 84 1016.0
20260507155027 54 163 3.0 8.0 0.00 0.52 0.52 84 1016.0
20260507154545 54 111 1.0 8.0 0.00 0.52 0.52 84 1015.9
20260507154028 54 121 3.0 8.0 0.00 0.52 0.52 83 1015.9
20260507153527 54 107 2.0 6.0 0.00 0.52 0.52 84 1015.9
20260507153038 54 91 2.0 6.0 0.00 0.52 0.52 85 1015.9
20260507152527 54 98 3.0 9.0 0.00 0.52 0.52 85 1016.0
20260507152028 54 82 4.0 10.0 0.00 0.52 0.52 85 1016.0
20260507151539 54 110 5.0 10.0 0.00 0.52 0.52 85 1015.9
20260507151027 54 134 4.0 9.0 0.00 0.52 0.52 85 1016.0
20260507150527 54 116 4.0 10.0 0.00 0.52 0.52 85 1015.9
20260507150043 54 126 4.0 10.0 0.00 0.52 0.52 86 1015.9
20260507145527 54 63 5.0 10.0 0.00 0.52 0.52 86 1016.0
20260507145027 54 123 3.0 12.0 0.00 0.52 0.52 87 1016.0
20260507144540 54 127 5.0 14.0 0.00 0.52 0.52 87 1015.9
20260507144028 54 79 6.0 14.0 0.00 0.52 0.52 86 1016.0
20260507143528 54 103 6.0 14.0 0.00 0.52 0.52 87 1016.0
20260507143039 54 117 5.0 13.0 0.00 0.52 0.52 88 1016.2
20260507142527 54 114 6.0 13.0 0.00 0.52 0.52 88 1016.2
20260507142027 54 115 4.0 13.0 0.00 0.52 0.52 88 1016.1
20260507141552 54 84 3.0 9.0 0.00 0.52 0.52 89 1016.2
20260507141027 53 135 4.0 8.0 0.00 0.52 0.52 89 1016.2
20260507140528 53 70 2.0 8.0 0.00 0.52 0.52 90 1016.2
20260507140044 53 123 3.0 7.0 0.00 0.52 0.52 89 1016.1
20260507135527 53 101 3.0 9.0 0.00 0.53 0.52 90 1016.2
20260507135028 53 83 4.0 10.0 0.00 0.53 0.52 90 1016.2
20260507134539 53 86 4.0 10.0 0.00 0.53 0.52 90 1016.2
20260507134027 53 110 3.0 8.0 0.00 0.53 0.52 90 1016.2
20260507133529 53 45 4.0 9.0 0.00 0.53 0.52 90 1016.3
20260507133055 53 72 3.0 9.0 0.00 0.53 0.52 90 1016.3
20260507132533 53 96 2.0 8.0 0.00 0.53 0.52 91 1016.3
20260507132027 53 112 4.0 8.0 0.00 0.53 0.52 90 1016.3
20260507131551 54 95 2.0 7.0 0.00 0.53 0.52 91 1016.3
20260507131028 54 69 2.0 6.0 0.00 0.53 0.52 91 1016.3
20260507130528 54 73 1.0 7.0 0.00 0.53 0.52 92 1016.2
20260507130054 53 144 3.0 9.0 0.00 0.53 0.52 92 1016.2
20260507125527 53 93 1.0 9.0 0.00 0.53 0.52 93 1016.3
20260507125027 53 63 2.0 8.0 0.00 0.53 0.52 93 1016.2
20260507124544 53 96 2.0 8.0 0.00 0.53 0.52 93 1016.3
20260507124027 52 82 4.0 8.0 0.00 0.53 0.52 93 1016.4
20260507123527 52 120 3.0 8.0 0.00 0.53 0.52 94 1016.4
20260507123039 52 106 2.0 8.0 0.01 0.53 0.52 94 1016.3
20260507122529 52 117 3.0 8.0 0.03 0.53 0.52 93 1016.1
20260507122030 51 100 1.0 9.0 0.07 0.53 0.52 93 1016.2
20260507121538 51 101 3.0 9.0 0.09 0.53 0.52 93 1016.2
20260507121028 51 116 2.0 8.0 0.11 0.53 0.52 93 1016.0
20260507120527 51 113 2.0 7.0 0.13 0.53 0.52 93 1016.2
20260507120051 51 117 2.0 8.0 0.15 0.53 0.52 93 1016.0
20260507115527 51 92 3.0 12.0 0.18 0.53 0.52 93 1015.9
20260507115031 51 123 5.0 12.0 0.18 0.53 0.52 93 1015.9
20260507114617 51 181 0.0 7.0 0.19 0.53 0.52 93 1015.9
20260507114027 51 255 1.0 7.0 0.22 0.53 0.52 93 1015.9
20260507113529 51 228 4.0 8.0 0.22 0.53 0.52 93 1015.8
20260507113039 51 104 2.0 8.0 0.22 0.51 0.50 92 1015.6
20260507112531 51 95 1.0 10.0 0.21 0.49 0.48 92 1015.5
20260507112027 51 176 1.0 10.0 0.18 0.46 0.45 92 1015.6
20260507111539 51 88 4.0 10.0 0.15 0.43 0.42 92 1015.4
20260507111027 51 114 4.0 10.0 0.14 0.41 0.40 92 1015.4
20260507110522 51 58 3.0 8.0 0.12 0.40 0.39 93 1015.4
20260507110039 51 117 4.0 10.0 0.10 0.37 0.36 93 1015.6
20260507105523 51 57 3.0 11.0 0.08 0.35 0.34 93 1015.6
20260507105025 51 27 4.0 11.0 0.08 0.34 0.33 93 1015.7
20260507104537 51 117 3.0 10.0 0.07 0.33 0.32 93 1015.6
20260507104025 50 94 4.0 10.0 0.06 0.31 0.30 93 1015.7
20260507103525 50 150 4.0 8.0 0.04 0.29 0.29 93 1015.7
20260507103035 50 94 3.0 8.0 0.04 0.29 0.28 93 1015.6
20260507102525 50 121 2.0 7.0 0.03 0.28 0.27 93 1015.7
20260507102023 50 60 3.0 7.0 0.03 0.27 0.26 93 1015.6
20260507101544 50 92 4.0 7.0 0.04 0.27 0.26 93 1015.6
20260507101024 50 79 2.0 8.0 0.05 0.27 0.26 93 1015.6
20260507100526 50 73 2.0 8.0 0.06 0.27 0.26 93 1015.6
20260507100040 50 95 4.0 8.0 0.06 0.26 0.25 93 1015.8
20260507095523 50 120 4.0 10.0 0.07 0.26 0.25 93 1015.8
20260507095026 50 105 4.0 11.0 0.07 0.25 0.25 92 1015.7
20260507094540 50 141 3.0 11.0 0.07 0.25 0.25 93 1015.7
20260507094025 50 77 6.0 11.0 0.07 0.25 0.24 92 1015.5
20260507093522 50 126 2.0 11.0 0.08 0.25 0.24 93 1015.7
20260507093038 50 174 3.0 14.0 0.08 0.24 0.23 93 1015.7
20260507092526 49 139 7.0 15.0 0.09 0.24 0.23 92 1015.7
20260507092022 49 103 6.0 15.0 0.08 0.23 0.22 92 1015.6
20260507091546 49 129 6.0 14.0 0.08 0.22 0.22 92 1015.7
20260507091025 49 119 6.0 15.0 0.07 0.22 0.21 92 1015.7
20260507090528 49 354 7.0 15.0 0.07 0.21 0.20 92 1015.3
20260507090041 49 68 7.0 16.0 0.07 0.20 0.19 92 1015.4
20260507085526 49 92 7.0 16.0 0.07 0.19 0.18 92 1015.2
20260507085026 49 110 8.0 16.0 0.05 0.18 0.17 92 1015.4
20260507084553 49 86 7.0 14.0 0.05 0.18 0.17 92 1015.2
20260507084025 49 100 5.0 13.0 0.05 0.17 0.16 92 1015.4
20260507083526 49 153 5.0 13.0 0.04 0.16 0.15 92 1015.3
20260507083038 49 90 5.0 13.0 0.04 0.15 0.14 92 1015.3
20260507082526 49 115 6.0 13.0 0.03 0.14 0.14 92 1015.4
20260507082025 49 87 5.0 16.0 0.03 0.14 0.14 92 1015.6
20260507081547 49 100 5.0 16.0 0.03 0.14 0.13 92 1015.2
20260507081023 49 72 7.0 13.0 0.03 0.14 0.13 92 1015.4
20260507080522 49 83 6.0 15.0 0.03 0.13 0.12 92 1015.4
20260507080048 48 68 6.0 15.0 0.03 0.13 0.12 92 1015.4
20260507075525 48 77 4.0 10.0 0.03 0.12 0.11 92 1015.4
20260507075025 48 141 3.0 10.0 0.03 0.12 0.11 92 1015.3
20260507074542 48 70 3.0 10.0 0.03 0.12 0.11 92 1015.4
20260507074027 48 92 5.0 10.0 0.03 0.11 0.11 91 1015.6
20260507073526 48 110 5.0 10.0 0.03 0.11 0.11 91 1015.5
20260507073040 48 74 3.0 14.0 0.02 0.11 0.10 91 1015.6
20260507072526 48 115 5.0 14.0 0.03 0.11 0.10 91 1015.3
20260507072025 48 70 5.0 12.0 0.03 0.11 0.10 91 1015.3
20260507071538 48 92 5.0 11.0 0.02 0.10 0.09 91 1015.3
20260507071029 48 123 6.0 11.0 0.03 0.10 0.09 91 1015.4
20260507070525 48 98 3.0 14.0 0.02 0.09 0.08 91 1015.4
20260507070038 48 91 4.0 14.0 0.02 0.09 0.08 91 1015.4
20260507065522 48 91 3.0 11.0 0.02 0.09 0.08 91 1015.4
20260507065022 48 89 3.0 11.0 0.03 0.09 0.08 91 1015.6
20260507064538 48 140 5.0 11.0 0.02 0.08 0.07 91 1015.6
20260507064025 48 70 5.0 13.0 0.02 0.08 0.07 90 1015.5
20260507063521 48 106 5.0 13.0 0.02 0.08 0.07 90 1015.4
20260507063038 47 74 5.0 13.0 0.01 0.07 0.07 90 1015.5
20260507062526 47 90 6.0 18.0 0.01 0.07 0.07 89 1015.7
20260507062026 48 132 4.0 18.0 0.01 0.07 0.07 89 1015.6
20260507061540 48 98 7.0 18.0 0.00 0.07 0.06 88 1015.5
20260507061027 48 98 4.0 14.0 0.00 0.07 0.06 88 1015.7
20260507060525 48 150 5.0 14.0 0.00 0.07 0.06 88 1015.6
20260507060048 48 106 6.0 14.0 0.00 0.07 0.06 87 1015.7
20260507055526 48 105 6.0 15.0 0.00 0.07 0.06 87 1015.6
20260507055029 48 129 5.0 15.0 0.00 0.06 0.05 86 1015.6
20260507054539 49 233 4.0 14.0 0.00 0.06 0.05 85 1015.5
20260507054025 49 130 6.0 14.0 0.00 0.06 0.05 85 1015.5
20260507053524 49 90 5.0 14.0 0.00 0.06 0.05 85 1015.6
20260507053044 49 201 3.0 14.0 0.00 0.06 0.05 85 1015.6
20260507052522 49 104 7.0 14.0 0.00 0.06 0.05 84 1015.6
20260507052025 49 129 2.0 12.0 0.00 0.06 0.05 85 1015.6
20260507051540 49 107 3.0 10.0 0.00 0.06 0.05 85 1015.6
20260507051024 49 101 3.0 10.0 0.00 0.06 0.05 85 1015.6
20260507050527 49 147 4.0 11.0 0.00 0.06 0.05 84 1015.7
20260507050038 49 108 5.0 11.0 0.00 0.06 0.05 84 1015.6
20260507045526 49 83 4.0 16.0 0.00 0.06 0.05 83 1015.3
20260507045026 49 136 6.0 16.0 0.00 0.06 0.05 83 1015.4
20260507044539 49 113 6.0 16.0 0.00 0.06 0.05 82 1015.4
20260507044025 50 115 6.0 15.0 0.00 0.06 0.05 83 1015.3
20260507043525 49 143 4.0 13.0 0.00 0.06 0.05 83 1015.2
20260507043038 49 108 6.0 13.0 0.00 0.06 0.05 83 1015.1
20260507042526 49 154 6.0 13.0 0.00 0.06 0.05 84 1015.0
20260507042027 49 97 3.0 8.0 0.00 0.06 0.05 85 1015.0
20260507041548 49 0 0.0 6.0 0.00 0.06 0.05 86 1015.0
20260507041026 49 141 2.0 7.0 0.00 0.06 0.05 85 1015.0
20260507040526 49 129 3.0 8.0 0.00 0.06 0.05 86 1014.7
20260507040043 49 129 3.0 8.0 0.00 0.06 0.05 86 1014.5
20260507035526 49 136 3.0 10.0 0.00 0.06 0.05 86 1014.6
20260507035026 49 122 4.0 12.0 0.00 0.06 0.05 86 1014.6
20260507034539 49 125 4.0 12.0 0.01 0.06 0.05 85 1014.3
20260507034025 49 134 4.0 11.0 0.02 0.06 0.05 85 1014.0
20260507033526 49 99 5.0 12.0 0.03 0.06 0.05 86 1014.1
20260507033039 49 64 6.0 14.0 0.03 0.06 0.05 86 1014.1
20260507032525 49 91 5.0 14.0 0.04 0.06 0.05 85 1014.2
20260507032025 49 84 5.0 13.0 0.04 0.06 0.05 86 1014.3
20260507031537 49 63 6.0 15.0 0.04 0.06 0.05 86 1014.2
20260507031022 49 103 3.0 15.0 0.04 0.06 0.05 86 1014.3
20260507030526 49 133 6.0 15.0 0.04 0.06 0.05 87 1014.3
20260507030038 49 101 6.0 14.0 0.04 0.06 0.05 87 1014.2
20260507025522 49 95 5.0 15.0 0.03 0.05 0.04 87 1014.2
20260507025025 49 56 5.0 15.0 0.03 0.05 0.04 87 1014.4
20260507024542 49 122 3.0 9.0 0.03 0.04 0.03 87 1014.5
20260507024025 49 145 3.0 10.0 0.02 0.03 0.03 86 1014.7
20260507023525 49 92 4.0 10.0 0.00 0.02 0.01 85 1014.9
20260507023047 50 79 5.0 10.0 0.00 0.02 0.01 83 1015.0
20260507022525 50 94 2.0 10.0 0.00 0.01 0.00 82 1015.1
20260507022026 50 103 0.0 10.0 0.00 0.01 0.00 82 1015.1
20260507021543 50 102 3.0 10.0 0.00 0.01 0.00 82 1014.9
20260507021026 50 63 4.0 10.0 0.00 0.01 0.00 82 1014.7
20260507020526 49 83 4.0 10.0 0.00 0.01 0.00 83 1014.7
20260507020230 49 69 5.0 11.0 0.00 0.01 0.00 84 1014.6
20260507015526 49 49 4.0 11.0 0.00 0.01 0.00 84 1014.7
20260507015026 49 123 5.0 11.0 0.00 0.01 0.00 85 1014.8
20260507014546 49 150 2.0 5.0 0.00 0.01 0.00 86 1014.6
20260507014026 49 98 1.0 6.0 0.00 0.01 0.00 86 1014.7
20260507013526 49 54 3.0 8.0 0.00 0.01 0.00 87 1014.7
20260507013049 49 83 3.0 8.0 0.00 0.01 0.00 87 1014.9
20260507012527 49 11 1.0 8.0 0.00 0.01 0.00 87 1014.8
20260507012026 49 120 1.0 8.0 0.00 0.01 0.00 87 1014.7
20260507011538 49 80 3.0 6.0 0.00 0.01 0.00 87 1014.7
20260507011025 49 70 1.0 6.0 0.00 0.01 0.00 87 1014.8
20260507010526 49 101 1.0 9.0 0.00 0.01 0.00 86 1014.9
20260507010039 49 59 2.0 9.0 0.00 0.01 0.00 86 1014.9
20260507005526 50 69 1.0 13.0 0.00 0.01 0.00 85 1014.9
20260507005026 50 69 3.0 13.0 0.00 0.01 0.00 84 1015.0
20260507004548 50 115 5.0 13.0 0.00 0.01 0.00 83 1014.9
20260507004025 50 81 4.0 14.0 0.00 0.01 0.00 83 1014.9
20260507003523 50 120 4.0 14.0 0.00 0.01 0.00 82 1015.1
20260507003044 50 116 5.0 14.0 0.00 0.01 0.00 82 1015.1
20260507002523 50 110 3.0 13.0 0.00 0.01 0.00 83 1015.2
20260507002026 51 111 4.0 13.0 0.00 0.01 0.00 83 1015.2
20260507001545 51 84 5.0 13.0 0.00 0.01 0.00 82 1015.1
20260507001022 51 96 5.0 16.0 0.00 0.01 0.00 81 1015.3
20260507000525 52 99 8.0 16.0 0.00 0.01 0.00 79 1015.3
20260507000038 52 143 5.0 15.0 0.00 0.01 0.00 79 1015.2
20260506235528 52 76 6.0 14.0 0.00 0.01 0.00 78 1015.1
20260506235023 52 105 4.0 13.0 0.00 0.01 0.00 78 1015.2
20260506234543 52 63 6.0 13.0 0.00 0.01 0.00 77 1015.2
20260506234025 52 97 3.0 9.0 0.00 0.01 0.00 78 1015.2
20260506233526 52 141 2.0 9.0 0.00 0.01 0.00 78 1015.2
20260506233046 52 120 4.0 13.0 0.00 0.01 0.00 79 1015.4
20260506232525 52 122 5.0 13.0 0.00 0.01 0.00 79 1015.3
20260506232026 52 102 4.0 11.0 0.00 0.01 0.00 80 1015.4
20260506231539 52 57 5.0 11.0 0.00 0.01 0.00 79 1015.4
20260506231026 52 134 5.0 11.0 0.00 0.01 0.00 80 1015.5
20260506230526 52 65 4.0 9.0 0.00 0.01 0.00 81 1015.5
20260506230046 52 113 4.0 9.0 0.00 0.01 0.00 82 1015.5
20260506225525 52 57 2.0 10.0 0.00 0.01 0.00 82 1015.5
20260506225027 52 106 2.0 10.0 0.00 0.01 0.00 81 1015.4
20260506224544 52 68 3.0 9.0 0.00 0.01 0.00 80 1015.4
20260506224029 53 72 2.0 7.0 0.00 0.01 0.00 79 1015.5
20260506223523 53 0 2.0 7.0 0.00 0.00 0.00 76 1015.5
20260506223043 54 131 3.0 7.0 0.00 0.00 0.00 74 1015.9
20260506222522 54 114 2.0 5.0 0.00 0.00 0.00 74 1015.7
20260506222028 54 86 0.0 4.0 0.00 0.00 0.00 75 1015.9
20260506221539 54 0 1.0 6.0 0.00 0.00 0.00 76 1015.8
20260506221025 54 0 2.0 8.0 0.00 0.00 0.00 75 1015.8
20260506220526 54 98 2.0 8.0 0.00 0.00 0.00 74 1015.7
20260506220041 54 115 3.0 8.0 0.00 0.00 0.00 73 1015.7
20260506215525 54 96 2.0 6.0 0.00 0.00 0.00 74 1015.6
20260506215029 54 101 2.0 6.0 0.00 0.00 0.00 74 1015.8
20260506214542 54 0 1.0 6.0 0.00 0.00 0.00 73 1015.7
20260506214023 54 90 1.0 11.0 0.00 0.00 0.00 72 1015.7
20260506213526 54 109 0.0 11.0 0.00 0.00 0.00 72 1015.7
20260506213051 54 122 4.0 11.0 0.00 0.00 0.00 71 1015.7
20260506212525 54 152 3.0 7.0 0.00 0.00 0.00 72 1015.6
20260506212026 54 0 1.0 6.0 0.00 0.00 0.00 73 1015.6
20260506211537 54 0 1.0 6.0 0.00 0.00 0.00 73 1015.5
20260506211026 54 0 2.0 6.0 0.00 0.00 0.00 74 1015.6
20260506210523 55 0 2.0 6.0 0.00 0.00 0.00 72 1015.5
20260506210042 54 94 2.0 9.0 0.00 0.00 0.00 71 1015.5
20260506205528 54 119 1.0 9.0 0.00 0.00 0.00 72 1015.6
20260506205026 54 0 0.0 5.0 0.00 0.00 0.00 73 1015.4
20260506204541 54 105 0.0 5.0 0.00 0.00 0.00 73 1015.6
20260506204025 54 0 0.0 2.0 0.00 0.00 0.00 74 1015.6
20260506203526 54 0 0.0 4.0 0.00 0.00 0.00 74 1015.6
20260506203040 54 0 1.0 4.0 0.00 0.00 0.00 74 1015.7
20260506202526 54 268 1.0 5.0 0.00 0.00 0.00 76 1015.7
20260506202026 54 0 0.0 6.0 0.00 0.00 0.00 77 1015.6
20260506201541 54 103 2.0 7.0 0.00 0.00 0.00 77 1015.6
20260506201025 54 103 2.0 9.0 0.00 0.00 0.00 78 1015.4
20260506200525 54 103 4.0 10.0 0.00 0.00 0.00 79 1015.5
20260506200038 54 107 4.0 11.0 0.00 0.00 0.00 79 1015.6
20260506195526 54 89 4.0 11.0 0.00 0.00 0.00 79 1015.6
20260506195026 54 146 5.0 11.0 0.00 0.00 0.00 79 1015.5
20260506194539 54 64 5.0 11.0 0.00 0.00 0.00 78 1015.6
20260506194027 54 74 5.0 10.0 0.00 0.00 0.00 77 1015.6
20260506193528 54 60 3.0 7.0 0.00 0.00 0.00 77 1015.6
20260506193040 54 143 3.0 10.0 0.00 0.00 0.00 77 1015.6
20260506192525 54 127 2.0 10.0 0.00 0.00 0.00 78 1015.6
20260506192026 54 159 1.0 7.0 0.00 0.00 0.00 78 1015.5